RH
39 38 37 36 36 35 35 35 35 35 35 34 34 34 33 32 32 31 30 29 27 26 24 22 21 19 18 17 16 15 14 14 13 13 12 12 12 12 12 12 12 11 11 11 11 11 11 11 11 11 11 11 11 10 10 10 10 10 10 10 11 11 12 12 13 14 14 15 16
41 40 39 38 37 36 36 35 35 35 35 35 35 34 34 33 32 31 30 29 28 26 25 23 22 20 19 18 17 16 15 14 14 13 13 13 12 12 12 12 11 11 11 11 11 11 11 11 11 11 11 11 11 10 10 10 10 10 11 11 11 12 13 13 14 15 15 16 17
42 41 41 40 38 37 36 36 35 35 35 35 35 34 34 33 32 31 31 30 29 27 26 24 23 21 20 18 17 16 15 14 14 13 13 13 12 12 12 11 11 11 11 11 11 11 11 11 11 11 11 11 10 10 11 11 11 11 12 12 13 13 14 15 15 16 17 18 20
43 43 42 41 40 39 38 37 36 36 35 35 35 34 33 33 32 32 32 31 30 29 27 25 24 22 20 19 17 16 15 14 14 14 13 13 12 12 12 11 11 11 11 11 10 11 11 11 11 11 11 11 11 11 12 12 12 13 13 14 15 16 16 17 18 19 20 21 22
44 44 44 43 42 41 40 38 37 36 36 35 34 34 33 33 33 33 33 32 31 30 28 26 24 22 20 19 17 16 15 15 14 14 13 13 12 12 12 11 11 11 11 11 11 11 11 11 11 12 12 12 12 13 13 14 14 15 15 16 17 18 19 20 21 22 23 24 24
45 45 45 45 44 43 42 40 39 37 36 35 35 34 33 33 33 34 34 33 32 30 29 26 24 22 20 18 17 16 15 15 14 14 13 13 12 12 11 11 11 11 11 11 12 12 12 13 13 13 14 14 14 15 15 16 16 17 18 18 19 20 22 22 23 24 25 25 25
46 46 47 47 46 45 43 42 40 39 37 36 35 35 34 34 35 35 34 33 32 30 28 26 24 21 20 18 17 16 15 15 14 14 13 13 13 12 12 12 12 13 13 14 14 15 15 16 16 17 17 17 17 18 18 18 19 20 20 21 21 22 23 24 25 25 25 26 25
47 48 48 48 47 46 45 43 42 40 38 37 36 36 36 36 36 35 34 33 31 29 27 25 23 21 19 18 17 16 15 15 14 14 13 13 13 13 13 14 14 15 16 17 18 18 19 19 20 20 20 21 21 21 21 21 22 22 22 23 23 24 24 25 25 25 26 25 25
49 49 49 49 48 47 46 45 43 41 39 38 37 37 37 37 37 36 35 33 31 29 26 24 22 20 19 17 17 16 15 15 14 14 14 14 14 15 15 16 17 18 20 21 21 22 22 23 23 23 24 24 24 24 24 25 25 25 25 25 25 25 25 25 25 25 25 25 25
50 50 50 49 49 48 47 46 44 42 40 39 39 39 39 39 38 37 35 33 30 28 25 23 21 19 18 17 16 16 16 15 15 15 15 16 17 17 18 20 21 22 23 24 24 25 25 26 26 26 26 27 27 27 27 27 27 27 26 26 26 26 26 26 25 25 25 24 24
51 51 50 50 50 49 47 46 45 43 42 41 40 40 40 40 39 37 35 32 29 27 24 22 20 19 18 17 17 17 16 16 17 17 18 18 20 21 22 23 24 25 26 26 27 27 27 28 28 28 28 29 29 29 29 29 28 28 28 27 27 27 26 26 25 25 24 24 23
52 52 51 51 50 49 48 47 46 44 43 42 42 42 41 41 39 37 34 31 28 26 23 21 20 19 18 18 18 18 18 18 19 20 21 22 23 24 25 26 27 27 27 28 28 29 29 29 30 30 30 31 31 30 30 30 29 29 28 28 28 27 27 26 25 25 24 24 23
52 52 51 51 50 49 49 48 47 46 45 45 44 43 42 41 38 36 33 30 27 24 22 21 20 20 19 19 19 20 20 21 22 23 24 24 26 26 27 28 28 29 29 29 30 30 31 31 32 32 32 32 31 31 30 30 30 29 29 29 28 28 27 26 25 25 25 24 24
53 52 51 51 50 50 50 49 48 48 47 46 46 44 43 41 38 34 31 28 26 24 22 22 21 21 21 22 22 23 23 24 25 26 26 27 27 28 28 29 29 29 30 30 31 31 32 32 33 33 32 32 31 31 30 30 30 30 29 29 28 27 27 26 26 25 26 26 26
53 52 52 51 51 51 51 51 50 50 49 48 47 45 42 40 37 33 30 27 26 24 24 23 23 23 24 24 25 25 26 27 27 28 28 28 29 29 29 29 30 30 31 32 32 32 33 33 33 33 32 32 31 30 30 30 30 30 29 29 28 27 27 26 26 27 27 27 27
53 53 53 53 53 53 53 53 52 51 50 49 47 45 42 39 35 32 30 28 26 26 26 26 26 26 27 27 27 28 28 28 28 29 29 29 29 29 30 30 31 32 32 33 33 33 33 33 32 32 31 31 30 30 30 30 29 29 29 28 27 27 27 27 27 28 28 28 28
54 54 54 54 55 55 55 55 54 53 51 50 47 44 41 38 35 32 30 28 28 28 28 28 29 29 29 29 29 29 29 29 29 29 29 30 30 30 31 32 32 33 33 34 34 33 33 32 31 31 30 30 30 30 30 29 29 28 28 27 26 26 26 27 28 28 28 28 28
55 55 56 57 57 57 57 56 55 54 52 50 47 43 40 36 34 31 30 29 29 29 29 30 30 30 30 30 30 29 29 29 30 30 30 30 31 32 32 33 34 34 34 34 33 33 32 31 30 30 30 30 30 30 29 29 28 27 26 26 26 26 26 27 27 28 28 28 28
56 57 58 59 59 59 59 58 56 54 52 49 46 42 38 35 33 31 30 30 30 30 30 30 30 30 30 30 30 30 30 30 30 31 31 32 33 33 34 34 35 34 34 33 33 32 31 30 30 30 30 30 30 29 29 28 27 26 26 25 25 26 26 27 27 28 28 29 29
58 59 60 61 61 60 59 58 56 54 51 47 43 40 37 34 32 31 30 30 30 30 30 31 31 31 31 30 30 31 31 31 32 32 33 33 34 34 35 35 35 34 33 32 31 31 30 30 30 30 30 30 29 28 28 27 26 26 25 25 26 26 27 28 28 29 30 30 31
60 61 62 62 62 61 60 58 55 52 48 45 41 38 35 33 32 31 31 30 31 31 31 31 31 31 31 31 31 32 32 32 33 33 34 35 35 35 35 35 34 33 32 31 30 30 30 30 30 30 30 29 28 28 27 26 26 26 26 26 26 27 28 29 30 31 31 32 32
62 62 63 63 62 61 59 57 53 49 46 42 39 36 34 33 32 31 31 31 31 32 32 32 32 32 32 33 33 33 33 34 34 35 35 36 36 36 35 34 33 32 31 31 30 30 30 30 30 29 29 28 28 27 27 27 27 26 26 27 27 28 29 31 32 32 32 32 32
63 63 63 63 62 60 58 55 51 47 43 40 37 36 34 33 33 32 32 32 33 33 33 33 33 33 33 34 34 34 34 35 35 36 36 36 36 35 34 33 32 31 31 31 31 31 31 30 30 29 28 28 28 28 28 28 28 28 28 28 29 29 30 32 32 32 33 33 33
64 64 63 63 61 58 55 52 48 45 42 39 37 36 35 34 34 34 34 34 34 34 35 34 34 34 35 35 35 36 36 36 37 37 37 36 36 34 34 33 32 32 31 31 31 31 31 30 29 29 29 29 29 29 30 29 30 30 31 31 31 31 31 33 33 33 33 33 33
65 64 63 62 59 56 53 50 46 44 41 39 38 37 36 36 36 36 36 36 36 36 36 36 36 36 36 36 37 37 37 38 37 37 37 36 35 34 33 33 32 32 32 32 31 31 30 29 29 29 29 30 30 30 31 31 32 32 32 33 33 33 33 33 33 33 33 33 33
65 64 62 60 57 54 51 47 45 43 41 40 39 38 38 38 38 38 38 38 38 37 37 37 37 37 37 38 38 38 38 38 37 37 36 35 35 34 34 33 33 33 32 32 31 30 29 28 28 28 29 30 31 32 32 33 33 34 34 34 34 34 34 34 33 33 33 33 32
64 62 60 57 55 52 48 46 44 42 41 41 40 40 40 40 40 40 39 39 39 38 38 38 38 38 38 39 39 39 39 38 37 37 36 35 35 34 34 34 33 33 32 31 30 29 27 26 26 27 28 30 32 34 34 34 34 34 34 34 34 34 34 34 33 33 32 32 31
63 60 58 55 52 49 47 45 43 42 42 42 41 41 41 41 41 40 40 39 39 39 39 39 39 39 39 40 40 39 39 38 38 37 36 35 35 35 34 34 33 32 31 30 29 28 27 26 25 26 29 33 36 36 35 35 35 35 35 35 35 34 34 33 33 32 32 31 30
61 58 55 53 50 47 45 44 43 43 43 42 42 42 42 41 41 40 40 39 39 39 39 39 39 39 40 40 40 39 39 38 37 37 36 36 36 35 34 34 32 31 30 28 27 27 26 25 25 27 30 35 37 36 36 36 35 35 35 35 35 34 33 33 32 32 31 31 29
59 56 54 51 48 47 45 44 44 44 43 43 43 42 41 41 40 40 39 39 39 39 40 40 40 40 40 40 40 39 39 38 37 37 36 36 36 35 34 32 31 29 28 27 27 26 26 26 27 28 31 34 36 37 36 36 36 36 35 35 34 34 33 32 32 31 31 30 28
57 55 52 50 48 46 46 45 45 44 44 43 42 42 41 40 40 40 40 40 40 40 40 41 41 41 40 40 40 39 39 38 37 37 36 36 35 34 33 31 29 28 27 27 27 26 26 27 27 29 31 33 36 37 37 36 36 36 35 35 34 33 32 32 32 31 30 29 28
57 54 52 49 48 47 46 45 45 44 43 42 42 41 41 40 40 40 40 40 40 41 41 41 41 41 40 40 39 39 39 38 37 37 36 35 34 33 31 30 28 27 27 27 27 27 27 27 27 29 31 34 37 37 37 36 36 35 35 34 34 33 32 32 31 31 30 28 27
56 54 51 49 48 47 46 45 44 43 43 42 41 41 41 40 40 40 40 40 41 41 41 41 41 41 40 40 39 39 38 38 37 36 35 34 33 32 30 29 27 27 27 27 27 27 27 27 27 29 32 36 37 37 37 37 36 35 35 34 33 32 32 31 31 30 28 27 27
56 53 50 49 47 46 45 44 44 43 42 42 41 41 41 40 40 40 41 41 41 41 41 41 41 41 40 40 39 39 38 37 37 35 34 33 32 30 29 28 27 26 26 26 26 27 27 27 28 30 33 36 37 37 36 36 36 35 34 34 33 32 31 31 30 29 27 26 26
54 52 49 48 46 45 45 44 43 42 42 41 41 41 41 41 41 41 41 41 41 41 41 41 41 40 40 39 39 38 38 37 35 34 33 31 30 29 28 27 26 26 26 26 26 27 27 28 29 31 34 36 36 35 36 36 35 35 34 33 32 31 31 30 29 28 26 26 26
53 50 48 47 46 45 44 43 43 42 42 41 41 41 41 41 41 41 41 41 41 41 41 41 41 40 40 39 39 38 37 35 34 32 31 30 29 29 27 26 25 25 25 26 26 27 28 29 30 32 34 34 35 36 36 36 35 34 34 33 32 31 30 30 28 26 25 26 26
51 49 47 46 45 44 43 43 42 42 41 41 41 41 41 41 41 41 41 41 41 41 41 41 40 40 39 39 38 36 35 33 32 31 30 29 28 28 27 26 25 24 25 26 27 28 29 30 31 33 34 35 36 37 37 36 35 34 33 32 31 30 30 29 28 26 25 26 26
50 48 46 45 44 44 43 42 42 41 41 41 41 41 41 41 42 42 41 41 41 41 41 40 40 40 39 38 36 35 33 32 31 30 29 28 28 27 27 26 25 24 25 26 28 29 31 32 32 33 35 37 38 38 37 36 35 34 32 32 31 30 29 29 27 26 26 26 27
49 47 46 45 44 43 43 42 42 41 41 41 41 41 41 42 42 42 42 41 41 41 41 40 39 38 37 36 35 33 32 31 30 29 28 28 27 26 26 26 25 25 26 27 29 31 32 33 33 35 38 39 39 38 37 35 34 33 32 31 30 30 29 28 27 26 25 26 27
48 47 45 44 44 43 42 41 41 41 41 41 41 41 41 42 42 42 41 41 41 41 40 39 38 37 36 35 33 32 31 30 29 28 27 27 26 26 26 26 26 26 27 28 30 32 34 34 35 37 40 40 39 38 36 35 34 33 32 31 30 29 29 28 27 26 26 26 27
48 46 45 44 43 42 41 41 41 41 41 41 41 41 41 41 42 41 41 41 41 40 39 38 37 36 35 33 32 31 30 29 28 27 26 25 25 25 25 26 26 27 28 29 32 33 35 36 37 39 41 40 39 37 36 35 33 32 31 31 30 29 29 28 28 27 27 27 27